Flag for France Weather past 2 weeks in Nancy, France

Now
50 °F

Fog.


Feels Like: 50 °F
Forecast: 53 / 71 °F
Wind: No wind

Location: Nancy / Ochey

Current Time: Oct 1, 2014 at 8:45:14 AM

Latest Report: Oct 1, 2014 at 8:00 AM


Visibility: 0 mi

Pressure: 30.33 "Hg

Humidity: 100%

Dew point: 50 °F

Location of NancyLocation

Historic Weather in Nancy — Graph

°F

Nancy temperature yesterday

Maximum temperature yesterday: 70 °F (at 5:00 PM)
Minimum temperature yesterday: 55 °F (at 11:30 PM)
Average temperature yesterday: 62 °F

Past Weeks' High & Low Weather Summary

 TemperatureHumidityPressure
High77 °F (Sep 16, 4:30 PM)100% (Sep 16, 7:00 AM)30.36 "Hg (Sep 16, 7:00 AM)
Low39 °F (Sep 23, 7:00 AM)44% (Sep 28, 3:30 PM)29.83 "Hg (Sep 17, 5:00 PM)
Average60 °F81%30.11 "Hg
* Reported Sep 16 7:00 AM — Oct 1 7:30 AM, Nancy, Weather by CustomWeather, © 2014

Note: Actual official high and low records may vary slightly from our data, if they occured in-between our weather recording intervals... More about our weather records

Advertising

Nancy weather history for previous 24 hours

 ConditionsComfort  
Time TempWeatherWind HumidityBarometerVisibility
7:30 AM
Oct 1
48 °FFog.2 mph100%30.33 "Hg0 mi
7:00 AM50 °FFog.2 mph100%30.30 "Hg0 mi
6:30 AM52 °FFog.No wind100%30.30 "Hg0 mi
6:00 AM52 °FFog.No wind100%30.30 "Hg0 mi
5:30 AM52 °FFog.1 mph100%30.30 "Hg0 mi
4:30 AM52 °FFog.No wind100%30.33 "Hg0 mi
4:00 AM52 °FFog.No wind100%30.33 "Hg0 mi
3:30 AM54 °FFog.2 mph100%30.33 "Hg0 mi
3:00 AM54 °FFog.1 mph100%30.33 "Hg0 mi
2:30 AM54 °FFog.2 mph100%30.33 "Hg0 mi
2:00 AM55 °FFog.1 mph100%30.33 "Hg0 mi
1:30 AM54 °FFog.No wind100%30.30 "Hg0 mi
1:00 AM55 °FClear.No wind94%30.30 "Hg4 mi
12:30 AM55 °FClear.2 mph100%30.30 "Hg6 mi
12:00 AM55 °FClear.2 mph94%30.33 "HgN/A
11:30 PM
Sep 30
55 °FClear.1 mph94%30.33 "Hg4 mi
10:30 PM57 °FClear.No wind100%30.33 "HgN/A
10:00 PM57 °FClear.1 mph94%30.33 "HgN/A
9:30 PM59 °FClear.2 mph94%30.30 "HgN/A
9:00 PM59 °FClear.2 mph94%30.30 "HgN/A
8:30 PM59 °FClear.1 mph94%30.30 "HgN/A
8:00 PM61 °FClear.3 mph88%30.30 "HgN/A
7:30 PM63 °FClear.2 mph83%30.30 "Hg4 mi
7:00 PM64 °FPassing clouds.3 mph78%30.30 "HgN/A
6:30 PM64 °FPassing clouds.2 mph83%30.30 "HgN/A
6:00 PM66 °FScattered clouds.5 mph78%30.30 "HgN/A
5:30 PM66 °FBroken clouds.6 mph78%30.30 "HgN/A
5:00 PM70 °FPassing clouds.3 mph64%30.30 "HgN/A
4:30 PM68 °FMild.2 mph73%30.30 "HgN/A
4:00 PM68 °FBroken clouds.2 mph73%30.30 "HgN/A
3:30 PM68 °FMild.2 mph73%30.30 "HgN/A
3:00 PM66 °FClear.2 mph78%30.30 "HgN/A
2:30 PM66 °FPartly sunny.3 mph83%30.30 "HgN/A
2:00 PM66 °FMore clouds than sun.5 mph78%30.30 "HgN/A
1:30 PM66 °FMostly cloudy.3 mph78%30.33 "HgN/A
1:00 PM66 °FBroken clouds.1 mph78%30.33 "HgN/A
12:30 PM66 °FBroken clouds.2 mph78%30.33 "HgN/A
12:00 PM64 °FMostly cloudy.2 mph83%30.33 "HgN/A
11:30 AM64 °FMore clouds than sun.5 mph83%30.33 "HgN/A
11:00 AM63 °FOvercast.5 mph88%30.30 "HgN/A
10:30 AM63 °FPartly sunny.3 mph88%30.30 "HgN/A
10:00 AM61 °FPartly sunny.5 mph94%30.30 "HgN/A
9:30 AM61 °FOvercast.2 mph94%30.30 "HgN/A
9:00 AM59 °FMostly cloudy.2 mph94%30.30 "HgN/A
8:30 AM59 °FPassing clouds.3 mph94%30.30 "HgN/A
8:00 AM57 °FPassing clouds.2 mph100%30.27 "HgN/A
Weather by CustomWeather, © 2014

See weather overviewHow to use our weather pages